Time,TemperatureF,DewpointF,PressureIn,WindDirection,WindDirectionDegrees,WindSpeedMPH,WindSpeedGustMPH,Humidity,HourlyPrecipIn,Conditions,Clouds,dailyrainin,SoftwareType,DateUTC
2013-10-30 00:13:00,64.0,61.0,29.92,East,84,0.0,1.0,90,0.00,,,1.80,,2013-10-30 05:13:00,
2013-10-30 00:22:00,64.0,61.0,29.92,East,84,0.0,1.0,90,0.00,,,1.80,,2013-10-30 05:22:00,
2013-10-30 00:53:00,65.0,62.0,29.92,ESE,109,1.0,1.0,90,0.00,,,1.80,,2013-10-30 05:53:00,
2013-10-30 01:13:00,65.0,62.0,29.91,ESE,111,0.0,2.0,90,0.00,,,1.80,,2013-10-30 06:13:00,
2013-10-30 01:22:00,65.0,62.0,29.91,ESE,111,0.0,2.0,90,0.00,,,1.80,,2013-10-30 06:22:00,
2013-10-30 01:53:00,66.0,63.0,29.92,North,360,0.0,0.0,90,0.00,,,1.80,,2013-10-30 06:53:00,
2013-10-30 02:12:00,66.0,63.0,29.91,North,360,0.0,1.0,90,0.00,,,1.80,,2013-10-30 07:12:00,
2013-10-30 02:22:00,66.0,63.0,29.91,North,360,0.0,1.0,90,0.00,,,1.80,,2013-10-30 07:22:00,
2013-10-30 02:52:00,66.0,63.0,29.91,SE,141,1.0,1.0,90,0.00,,,1.80,,2013-10-30 07:52:00,
2013-10-30 03:12:00,66.0,63.0,29.92,North,360,0.0,0.0,90,0.00,,,1.73,,2013-10-30 08:12:00,
2013-10-30 03:22:00,66.0,63.0,29.92,North,360,0.0,0.0,90,0.00,,,1.73,,2013-10-30 08:22:00,
2013-10-30 03:52:00,66.0,63.0,29.91,North,360,0.0,0.0,90,0.00,,,1.61,,2013-10-30 08:52:00,
2013-10-30 04:11:00,66.0,63.0,29.90,East,97,2.0,4.0,90,0.00,,,1.33,,2013-10-30 09:11:00,
2013-10-30 04:22:00,66.0,63.0,29.90,East,97,2.0,4.0,90,0.00,,,1.33,,2013-10-30 09:22:00,
2013-10-30 04:54:00,66.0,63.0,29.88,ESE,105,0.0,0.0,90,0.00,,,1.25,,2013-10-30 09:54:00,
2013-10-30 05:13:00,66.0,63.0,29.88,South,190,1.0,2.0,90,0.00,,,1.13,,2013-10-30 10:13:00,
2013-10-30 05:23:00,66.0,63.0,29.88,South,190,1.0,2.0,90,0.00,,,1.13,,2013-10-30 10:23:00,
2013-10-30 05:53:00,66.0,63.0,29.88,SE,125,2.0,2.0,90,0.00,,,0.84,,2013-10-30 10:53:00,
2013-10-30 06:12:00,67.0,64.0,29.89,SE,140,1.0,2.0,90,0.00,,,0.67,,2013-10-30 11:12:00,
2013-10-30 06:22:00,67.0,64.0,29.89,SE,140,1.0,2.0,90,0.00,,,0.67,,2013-10-30 11:22:00,
2013-10-30 06:52:00,67.0,64.0,29.88,East,87,1.0,2.0,90,0.00,,,0.53,,2013-10-30 11:52:00,
2013-10-30 07:12:00,67.0,64.0,29.88,ESE,123,0.0,2.0,90,0.00,,,0.43,,2013-10-30 12:12:00,
2013-10-30 07:22:00,67.0,64.0,29.88,ESE,123,0.0,2.0,90,0.00,,,0.43,,2013-10-30 12:22:00,
2013-10-30 07:52:00,67.0,64.0,29.87,SSW,209,1.0,2.0,90,0.00,,,0.35,,2013-10-30 12:52:00,
2013-10-30 08:22:00,67.0,64.0,29.87,SW,219,1.0,2.0,90,0.00,,,0.29,,2013-10-30 13:22:00,
2013-10-30 08:52:00,67.0,64.0,29.85,ESE,115,2.0,2.0,90,0.00,,,0.09,,2013-10-30 13:52:00,
2013-10-30 09:11:00,67.0,64.0,29.85,SSE,150,2.0,3.0,90,0.00,,,0.07,,2013-10-30 14:11:00,
2013-10-30 09:21:00,67.0,64.0,29.85,SSE,150,2.0,3.0,90,0.00,,,0.07,,2013-10-30 14:21:00,
2013-10-30 09:52:00,67.0,64.0,29.84,ENE,62,2.0,3.0,90,0.00,,,0.06,,2013-10-30 14:52:00,
2013-10-30 10:11:00,67.0,64.0,29.85,SE,132,2.0,2.0,90,0.00,,,0.05,,2013-10-30 15:11:00,
2013-10-30 10:22:00,67.0,64.0,29.85,SE,132,2.0,2.0,90,0.00,,,0.05,,2013-10-30 15:22:00,
2013-10-30 10:54:00,67.0,64.0,29.84,ESE,102,1.0,2.0,90,0.00,,,0.04,,2013-10-30 15:54:00,
2013-10-30 11:12:00,67.0,64.0,29.82,SSE,163,2.0,4.0,90,0.00,,,0.04,,2013-10-30 16:12:00,
2013-10-30 11:23:00,67.0,64.0,29.82,SSE,163,2.0,4.0,90,0.00,,,0.04,,2013-10-30 16:23:00,
2013-10-30 11:53:00,67.0,64.0,29.81,SE,133,3.0,5.0,90,0.00,,,0.04,,2013-10-30 16:53:00,
2013-10-30 12:12:00,67.0,64.0,29.82,SE,136,3.0,3.0,90,0.00,,,0.02,,2013-10-30 17:12:00,
2013-10-30 12:23:00,67.0,64.0,29.82,SE,136,3.0,3.0,90,0.00,,,0.02,,2013-10-30 17:23:00,
2013-10-30 12:52:00,67.0,64.0,29.82,East,94,4.0,4.0,90,0.00,,,0.02,,2013-10-30 17:52:00,
2013-10-30 13:12:00,67.0,64.0,29.81,SE,137,3.0,5.0,90,0.08,,,0.09,,2013-10-30 18:12:00,
2013-10-30 13:22:00,67.0,64.0,29.81,SE,137,3.0,5.0,90,0.08,,,0.09,,2013-10-30 18:22:00,
2013-10-30 13:52:00,67.0,64.0,29.79,South,179,4.0,4.0,90,0.08,,,0.08,,2013-10-30 18:52:00,
2013-10-30 14:11:00,66.0,63.0,29.78,SE,126,2.0,5.0,90,0.01,,,0.09,,2013-10-30 19:11:00,
2013-10-30 14:21:00,66.0,63.0,29.78,SE,126,2.0,5.0,90,0.01,,,0.09,,2013-10-30 19:21:00,
2013-10-30 14:52:00,66.0,63.0,29.77,SSE,149,3.0,3.0,90,0.01,,,0.09,,2013-10-30 19:52:00,
2013-10-30 15:12:00,67.0,64.0,29.74,SE,140,3.0,4.0,90,0.00,,,0.09,,2013-10-30 20:12:00,
2013-10-30 15:22:00,67.0,64.0,29.74,SE,140,3.0,4.0,90,0.00,,,0.09,,2013-10-30 20:22:00,
2013-10-30 15:52:00,68.0,64.0,29.71,SSE,164,2.0,6.0,86,0.00,,,0.09,,2013-10-30 20:52:00,
2013-10-30 16:12:00,68.0,63.0,29.72,SSW,202,2.0,5.0,83,0.00,,,0.09,,2013-10-30 21:12:00,
2013-10-30 16:21:00,68.0,63.0,29.72,SSW,202,2.0,5.0,83,0.00,,,0.09,,2013-10-30 21:21:00,
2013-10-30 16:53:00,65.0,62.0,29.73,ESE,105,2.0,4.0,90,0.02,,,0.11,,2013-10-30 21:53:00,
2013-10-30 17:13:00,65.0,62.0,29.72,SSE,151,3.0,3.0,90,0.04,,,0.13,,2013-10-30 22:13:00,
2013-10-30 17:23:00,65.0,62.0,29.72,SSE,151,3.0,3.0,90,0.04,,,0.13,,2013-10-30 22:23:00,
2013-10-30 17:54:00,65.0,62.0,29.71,South,190,5.0,14.0,90,0.03,,,0.14,,2013-10-30 22:54:00,
2013-10-30 18:12:00,65.0,62.0,29.70,SE,144,5.0,5.0,90,0.02,,,0.15,,2013-10-30 23:12:00,
2013-10-30 18:23:00,65.0,62.0,29.70,SE,144,5.0,5.0,90,0.02,,,0.15,,2013-10-30 23:23:00,
2013-10-30 18:42:00,65.0,62.0,29.71,SSE,164,4.0,4.0,90,0.06,,,0.20,,2013-10-30 23:42:00,
2013-10-30 18:53:00,65.0,62.0,29.71,SSE,164,4.0,4.0,90,0.06,,,0.20,,2013-10-30 23:53:00,
2013-10-30 19:22:00,64.0,61.0,29.69,South,185,1.0,6.0,90,0.33,,,0.48,,2013-10-31 00:22:00,
2013-10-30 19:52:00,64.0,61.0,29.69,South,175,1.0,5.0,90,0.43,,,0.64,,2013-10-31 00:52:00,
2013-10-30 20:12:00,64.0,61.0,29.69,SSE,164,1.0,2.0,90,0.30,,,0.80,,2013-10-31 01:12:00,
2013-10-30 20:22:00,64.0,61.0,29.69,SSE,164,1.0,2.0,90,0.30,,,0.80,,2013-10-31 01:22:00,
2013-10-30 20:53:00,64.0,61.0,29.70,ESE,120,5.0,5.0,90,0.28,,,0.92,,2013-10-31 01:53:00,
2013-10-30 21:12:00,64.0,61.0,29.70,North,360,0.0,2.0,90,0.24,,,1.03,,2013-10-31 02:12:00,
2013-10-30 21:22:00,64.0,61.0,29.70,North,360,0.0,2.0,90,0.24,,,1.03,,2013-10-31 02:22:00,
2013-10-30 22:11:00,63.0,60.0,29.70,South,187,1.0,1.0,90,0.03,,,1.06,,2013-10-31 03:11:00,
2013-10-30 22:22:00,63.0,60.0,29.70,South,187,1.0,1.0,90,0.03,,,1.06,,2013-10-31 03:22:00,
2013-10-30 22:55:00,62.0,59.0,29.71,East,89,0.0,1.0,90,0.07,,,1.13,,2013-10-31 03:55:00,
2013-10-30 23:14:00,62.0,59.0,29.70,SE,138,3.0,4.0,90,0.14,,,1.20,,2013-10-31 04:14:00,
2013-10-30 23:24:00,62.0,59.0,29.70,SE,138,3.0,4.0,90,0.14,,,1.20,,2013-10-31 04:24:00,
2013-10-30 23:54:00,63.0,60.0,29.69,East,80,0.0,1.0,90,0.08,,,1.22,,2013-10-31 04:54:00,